Simultaneous Nadir Overpasses (SNOs) Predictions

Prediction of SNOs between NOAA-21 and NOAA-19 Satellite Orbit:

Table of predicted SNOs for the next 14.0 days since TLE Epoch: 4/20/2024
Index Date (NOAA-21) Time (NOAA-21) Lat,Lon (NOAA-21) SZA (NOAA-21 ) Date (NOAA-19) Time (NOAA-19) Lat,Lon (NOAA-19) SZA (NOAA-19 ) Distance(km) Time Diff (sec)
1 05/02/2024 01:09:11 -73.11, -26.52 122.26 05/02/2024 01:07:59 -73.08, -27.70 122.21 38.00 72
2 05/02/2024 02:00:02 73.37, 140.19 58.03 05/02/2024 01:58:47 73.39, 140.29 58.05 3.62 75
3 05/02/2024 02:50:46 -73.36, -52.47 122.00 05/02/2024 02:49:51 -73.38, -52.49 121.97 2.09 55
4 05/02/2024 03:41:32 73.38, 114.80 58.02 05/02/2024 03:40:45 73.39, 114.82 58.04 1.46 47
5 05/02/2024 04:32:17 -73.42, -77.97 121.96 05/02/2024 04:31:49 -73.39, -77.96 121.98 3.70 28
6 05/02/2024 05:23:02 73.39, 89.41 58.00 05/02/2024 05:22:43 73.40, 89.34 58.02 2.40 19
7 05/02/2024 06:13:47 -73.43,-103.37 121.97 05/02/2024 06:13:46 -73.44,-103.32 121.96 2.11 1
8 05/02/2024 07:04:32 73.45, 63.90 58.05 05/02/2024 07:04:39 73.45, 63.98 58.05 2.63 7
9 05/02/2024 07:55:16 -73.44,-128.76 121.98 05/02/2024 07:55:43 -73.45,-128.80 121.97 1.88 27
10 05/02/2024 08:46:02 73.46, 38.51 58.03 05/02/2024 08:46:37 73.46, 38.50 58.03 0.56 35
11 05/02/2024 09:36:47 -73.49,-154.26 121.94 05/02/2024 09:37:40 -73.50,-154.15 121.95 3.63 53
12 05/02/2024 10:27:32 73.46, 13.12 58.02 05/02/2024 10:28:35 73.47, 13.03 58.02 2.85 63
13 05/02/2024 11:18:22 -73.75, 179.76 121.68 05/02/2024 11:19:34 -73.70,-179.15 121.79 34.04 72
14 05/02/2024 12:09:15 74.11, -13.82 58.73 05/02/2024 12:10:21 74.06, -10.99 58.51 86.60 66



Historial Predications of SNOs between NOAA-21 and NOAA-19
